ECMWFNIL_850_spd_000.txt.gz
Wind_Speed
16 16 17 18 19 18 17 16 16 17 18 17 18 19 19 19 20 23 24 27 29 31 31 31 30 30 29 30 32 32 32 32 32 32 35 37 36 35 37 37 37 38
14 15 15 15 15 15 14 13 14 15 16 16 18 21 23 23 24 27 28 30 33 34 33 34 34 32 31 31 32 31 29 31 31 30 34 35 31 32 34 34 36 37
14 14 14 13 12 11 11 12 12 14 16 17 19 22 24 25 27 29 31 32 34 33 31 33 34 35 35 35 35 34 33 34 33 31 32 33 30 31 32 32 33 35
12 13 12 11 9 9 10 11 11 13 16 18 20 22 23 25 27 29 32 33 34 32 31 32 34 35 36 36 36 36 35 36 34 31 32 33 32 33 33 31 31 33
12 12 12 11 10 10 10 11 12 14 16 18 21 23 25 26 27 28 30 30 31 30 31 32 34 36 36 36 36 36 35 35 36 36 36 37 37 38 36 33 32 32
14 14 14 13 13 12 12 13 14 14 16 19 21 23 24 26 27 28 28 29 30 30 31 33 35 36 36 37 37 36 35 34 36 39 41 41 41 41 38 35 34 33
16 16 16 16 16 15 15 15 15 15 16 18 20 21 23 23 24 24 25 26 27 29 32 34 36 36 36 36 36 37 37 36 37 41 45 44 40 39 38 36 35 35
17 17 16 17 17 17 15 15 15 15 16 18 20 20 19 19 19 20 21 22 23 25 27 30 33 35 35 36 36 37 38 38 39 42 45 44 42 40 36 33 33 35
17 17 17 17 17 17 16 15 15 15 16 17 18 18 17 17 18 20 21 21 22 23 24 25 28 29 29 31 33 35 37 37 39 40 39 38 39 39 34 31 32 34
18 18 17 17 17 16 16 15 15 15 16 16 17 17 17 18 20 21 21 22 22 23 23 23 25 25 25 25 27 30 34 36 36 36 35 34 36 37 36 35 36 38
18 18 18 18 17 16 16 16 16 16 16 17 17 17 19 21 23 24 25 25 24 22 22 22 24 25 24 23 24 26 29 33 34 34 35 36 38 38 38 38 39 41
17 18 18 18 17 16 16 16 16 16 17 18 18 18 20 23 26 27 28 28 27 24 22 21 19 21 21 21 22 24 27 30 32 34 36 38 40 40 39 39 40 41
16 18 20 19 16 15 15 16 16 15 15 16 17 18 20 23 26 28 29 28 27 24 22 20 16 16 19 21 23 26 28 29 30 32 35 38 41 43 41 40 40 42
15 18 20 20 18 16 15 16 16 15 14 15 16 18 20 22 25 28 29 28 27 23 20 19 17 16 18 21 24 26 26 25 26 29 31 34 38 41 42 42 41 42
14 16 18 20 19 18 16 17 17 15 14 15 16 18 20 22 24 26 27 27 26 22 18 16 16 17 15 17 21 24 23 22 24 27 27 28 32 35 39 41 40 40
13 15 17 18 19 19 18 18 17 15 14 14 15 17 19 21 22 23 25 26 26 23 19 15 14 15 14 15 19 22 23 23 24 25 25 26 28 31 34 37 37 38
14 15 16 17 18 19 19 18 17 15 14 15 16 17 18 19 20 21 23 25 25 22 18 14 12 13 15 17 20 18 17 21 22 22 24 24 24 27 31 34 34 34
15 15 15 16 17 19 19 18 17 16 15 16 17 17 17 18 19 20 21 23 24 22 18 16 14 16 18 19 21 18 16 19 21 21 21 22 21 22 27 30 30 30
16 16 16 16 17 18 18 17 16 16 16 17 17 17 17 18 19 19 20 22 23 22 21 21 20 20 21 20 20 20 19 20 19 18 19 20 18 17 23 25 25 27
17 16 16 16 16 15 16 16 16 17 16 17 18 18 17 18 19 20 20 21 22 23 23 24 24 23 22 21 20 19 18 18 16 16 18 18 15 13 19 23 23 25
15 13 13 14 14 14 14 14 16 18 17 17 17 18 17 16 18 20 20 20 21 23 23 24 24 24 23 22 23 21 16 14 13 14 14 14 11 10 14 20 21 21
11 11 13 14 15 14 14 14 16 16 17 17 17 17 17 16 15 18 20 21 22 23 22 23 24 26 26 25 26 25 17 12 12 10 9 9 7 6 9 13 15 16
11 12 13 14 15 15 15 15 15 14 16 17 17 17 18 16 13 15 19 22 24 25 23 23 24 26 28 26 26 26 19 11 8 4 1 3 2 4 8 10 10 11
12 13 13 13 14 14 14 16 15 14 14 15 17 18 18 17 13 13 15 20 25 26 25 23 22 25 27 26 26 25 17 9 4 3 3 2 3 7 11 13 13 12
13 13 13 13 13 13 13 14 14 13 11 13 16 17 17 16 14 13 15 19 23 25 25 23 21 23 25 25 24 24 21 17 14 12 9 7 7 9 13 18 17 14
13 13 12 13 14 13 11 11 12 12 11 13 15 16 15 16 15 13 15 18 20 22 22 22 20 20 22 24 23 23 24 25 21 19 17 15 14 14 16 19 19 18

ECMWFNIL_850_spd_003.txt.gz
Wind_Speed
15 15 15 16 16 17 15 13 11 10 10 10 11 11 11 11 11 13 16 18 20 22 24 27 28 29 30 31 32 34 36 36 36 36 35 34 34 35 38 41 42 40
14 14 14 14 15 16 16 14 13 12 11 11 11 12 13 13 14 16 18 20 22 24 27 30 32 33 34 34 34 35 37 36 35 36 35 33 33 34 34 36 37 36
14 14 13 14 15 16 16 16 15 15 15 14 14 14 15 16 17 19 20 22 25 28 30 32 34 36 37 38 37 36 36 36 35 36 36 36 36 36 34 34 34 33
14 14 14 14 15 16 17 17 17 17 17 17 17 17 17 18 19 20 21 22 25 28 30 31 33 34 36 37 37 38 38 37 36 35 35 36 37 38 36 35 34 32
14 15 15 15 15 16 17 17 18 18 18 18 18 18 18 19 20 20 21 21 22 24 26 28 30 31 33 34 35 37 38 38 37 35 35 36 38 38 37 36 35 33
15 15 15 15 16 16 16 17 17 17 17 17 16 17 18 18 18 18 18 19 19 21 23 25 26 28 29 31 32 35 37 38 37 36 36 37 38 39 38 37 37 37
15 15 15 16 16 17 16 16 15 15 14 14 15 15 16 15 14 14 16 18 19 20 22 24 25 26 27 28 30 33 36 37 37 37 37 37 37 38 38 37 37 38
15 15 15 16 16 16 16 15 14 14 14 14 15 15 14 13 13 14 16 18 20 21 22 24 26 27 27 27 28 31 34 35 36 37 37 37 37 37 37 37 36 37
15 16 15 16 16 16 16 15 14 15 15 15 15 14 12 12 13 16 18 20 22 23 23 24 25 26 26 26 27 30 31 32 33 35 36 37 37 36 37 38 38 38
14 15 15 16 16 15 14 13 13 15 16 16 14 13 12 13 15 17 19 22 24 24 24 25 24 24 24 25 26 28 30 30 29 31 32 34 35 35 36 38 39 40
14 14 15 15 15 14 12 12 13 14 15 15 13 13 14 15 16 18 20 23 24 24 25 26 25 24 23 23 24 25 27 28 28 29 29 30 32 34 36 38 39 40
13 13 14 14 16 16 14 13 13 14 14 13 12 13 14 15 16 18 20 23 24 24 25 26 24 23 23 22 21 22 22 24 26 27 27 28 29 32 34 36 37 38
12 12 13 14 15 17 16 16 15 15 15 13 12 12 14 15 17 18 20 22 23 24 25 26 24 23 22 21 20 20 20 21 23 25 26 27 29 31 33 35 37 38
11 12 13 14 16 17 17 17 17 16 15 14 13 12 14 16 17 18 19 20 22 23 26 26 23 20 18 18 18 18 17 18 22 26 29 30 31 33 34 36 37 39
11 13 14 15 16 17 18 18 17 16 15 14 13 12 13 15 17 18 18 19 21 22 25 26 24 21 19 19 21 22 22 21 22 25 29 32 33 33 33 34 36 39
13 15 16 16 16 18 18 18 17 15 14 14 13 12 12 15 17 18 17 18 20 21 23 26 27 26 24 23 23 24 24 25 24 24 27 30 33 34 34 34 36 40
14 15 17 17 18 18 17 16 15 14 14 14 13 13 14 15 17 18 18 17 19 20 22 26 28 28 27 25 24 24 23 25 26 26 26 28 30 33 36 37 38 39
15 16 17 16 16 15 15 14 13 13 13 15 15 14 15 16 17 17 17 17 19 20 22 25 26 27 27 26 26 26 25 24 26 27 27 28 29 30 34 36 36 36
14 15 14 13 13 14 13 13 13 12 13 14 16 16 16 17 16 15 15 16 18 20 23 24 25 26 27 27 27 29 28 25 25 26 27 28 29 29 30 30 31 33
13 12 12 13 13 14 14 14 13 13 13 13 15 16 16 16 16 14 14 14 18 22 24 25 25 26 26 27 28 31 33 29 24 22 23 24 25 26 26 27 28 31
12 12 13 14 14 15 16 14 14 14 12 12 13 14 15 17 16 14 13 15 19 23 25 25 26 26 26 27 28 31 34 33 26 21 20 20 20 21 23 23 23 25
12 13 14 14 15 15 16 15 14 13 11 10 12 14 15 17 16 14 14 16 20 24 24 25 26 25 25 27 28 31 34 32 24 16 13 13 15 16 17 17 16 18
13 15 16 15 15 15 15 15 14 12 10 10 12 13 14 16 16 15 14 15 19 22 22 23 24 24 24 26 28 29 32 32 25 14 7 8 13 14 13 12 10 11
14 16 16 15 15 15 14 14 12 10 10 10 12 12 13 14 17 18 17 16 17 20 19 20 22 23 23 26 27 28 30 33 31 22 13 8 7 8 8 8 5 5
13 14 15 15 15 14 13 12 10 10 10 11 12 12 11 14 17 19 18 16 16 17 16 17 21 23 23 24 26 27 28 29 31 30 25 21 19 14 9 6 5 5
12 13 14 13 13 12 11 10 10 11 11 12 12 11 12 15 17 18 18 16 15 15 14 15 20 22 22 23 24 25 26 26 27 31 32 29 27 24 20 18 16 14

ECMWFNIL_850_spd_006.txt.gz
Wind_Speed
15 14 14 14 15 16 18 19 19 18 17 16 16 15 14 14 15 16 16 16 16 17 18 19 19 20 21 22 24 25 27 29 30 31 31 32 33 35 36 37 36 36
13 12 13 13 14 16 17 19 20 20 19 18 17 17 16 16 16 17 18 18 19 19 21 21 22 23 24 26 27 29 30 32 33 34 34 35 35 36 38 38 37 36
12 13 13 14 15 15 17 18 19 19 20 19 18 17 17 17 17 18 19 20 20 21 22 24 25 27 28 30 32 33 35 36 37 37 38 40 39 39 40 40 39 37
13 14 15 15 16 16 16 17 17 18 18 18 17 16 16 17 18 18 19 19 20 21 22 23 25 27 29 31 33 35 37 39 40 39 40 42 42 42 42 41 40 38
14 15 16 16 16 16 16 16 17 17 16 15 15 14 14 14 15 16 17 17 18 19 21 22 23 25 27 29 30 32 35 37 38 39 39 41 42 42 42 42 42 40
14 15 17 18 17 17 17 17 16 16 15 14 14 15 15 15 14 14 14 14 16 17 19 20 22 24 25 27 29 30 32 34 35 36 37 39 41 41 40 40 42 42
14 15 16 18 18 18 19 17 15 14 14 14 15 15 15 14 14 13 13 14 15 16 18 19 20 22 23 25 27 29 30 32 33 34 35 36 38 39 39 39 42 42
14 14 16 17 18 18 17 15 13 13 13 14 15 14 13 12 12 13 15 16 17 18 19 19 20 21 23 25 26 27 28 29 31 31 33 34 35 37 38 39 41 41
13 13 15 16 16 16 15 14 12 12 13 14 15 13 11 11 12 14 15 17 17 18 18 19 21 23 25 26 25 25 26 27 28 29 30 32 34 35 36 38 41 41
12 12 14 15 15 15 15 15 14 13 14 15 16 14 11 11 12 14 16 17 17 17 18 19 21 24 25 24 23 24 25 25 26 28 28 29 31 33 34 35 39 40
11 12 13 14 15 16 16 16 16 16 16 17 17 15 13 12 13 15 17 17 17 16 17 19 21 23 24 23 22 23 23 23 23 25 27 27 29 31 33 34 36 38
11 12 13 14 16 17 18 18 17 17 17 17 17 16 14 14 14 15 16 17 16 16 17 19 21 23 24 24 24 25 25 23 22 23 24 25 26 28 31 33 34 35
10 11 12 14 16 17 18 19 19 19 18 17 17 16 15 14 14 15 16 17 16 16 17 18 20 23 24 24 26 26 26 26 25 25 25 24 24 25 28 30 32 33
10 11 13 14 16 17 18 19 19 19 18 17 16 16 15 14 14 15 17 17 15 16 17 18 20 23 24 25 28 29 27 26 27 27 28 27 26 25 27 31 32 32
10 12 13 14 16 17 18 19 19 18 17 16 16 16 15 15 15 16 17 16 16 17 18 19 21 24 25 25 28 29 28 29 30 30 30 30 29 27 28 30 33 34
11 12 13 15 16 16 17 17 17 17 17 16 16 16 16 17 17 17 17 17 18 18 20 21 22 23 24 25 27 28 29 31 34 35 34 30 28 29 29 29 31 34
11 13 15 16 15 15 15 16 17 18 18 18 17 17 17 18 18 18 18 19 20 20 22 24 24 23 24 24 25 27 29 31 35 37 35 30 27 27 30 30 30 32
12 14 15 15 14 14 16 17 18 18 19 19 19 17 18 18 18 19 19 19 21 21 22 24 25 24 23 23 24 27 28 31 35 37 33 29 26 25 27 29 28 29
13 14 15 14 15 16 17 18 19 19 19 20 19 17 17 17 18 19 19 19 20 21 22 23 24 24 23 22 24 27 27 30 35 37 32 27 24 20 20 23 24 24
14 15 15 15 16 17 18 18 18 19 19 19 18 16 16 17 17 18 18 18 19 20 21 22 23 24 23 22 23 26 28 29 33 37 34 28 22 14 12 16 19 20
15 16 16 17 18 19 18 17 17 18 18 17 17 16 16 16 16 17 18 18 19 20 21 21 20 22 22 21 23 26 28 29 32 34 35 31 23 14 9 13 17 20
15 16 16 17 19 19 17 16 17 17 16 16 16 16 16 16 16 17 19 20 19 20 20 19 17 19 21 21 22 25 27 29 31 33 35 33 26 19 14 13 14 18
13 14 16 17 18 18 17 17 17 16 16 16 16 17 17 16 17 18 20 21 20 20 20 17 15 16 19 20 21 23 26 29 31 33 35 36 31 25 22 19 19 21
13 14 15 16 17 18 17 16 16 15 15 15 16 18 17 16 17 18 18 20 20 20 19 15 14 15 17 19 21 22 24 27 29 31 33 35 34 30 26 25 24 24
12 13 13 14 16 17 17 17 16 14 15 15 16 18 17 16 17 17 17 18 19 19 18 14 12 14 16 18 21 22 23 24 27 29 30 32 33 32 31 30 28 26
12 12 13 14 16 17 17 16 15 14 15 16 17 17 17 17 17 17 17 18 18 18 17 14 12 13 15 17 20 22 23 23 25 26 27 28 30 31 32 33 31 29

ECMWFNIL_850_spd_009.txt.gz
Wind_Speed
12 11 11 12 13 15 16 17 19 20 20 20 19 18 18 18 18 18 18 19 19 20 20 20 19 18 18 18 18 19 20 20 21 22 23 23 23 23 24 25 26 27
11 10 11 11 12 14 15 17 18 19 20 19 19 18 16 15 16 17 17 18 19 20 20 21 21 20 19 19 19 19 20 21 22 23 25 27 26 27 29 29 29 30
12 11 11 11 12 13 15 16 17 18 18 18 18 17 16 15 15 15 16 17 18 19 20 20 20 20 20 20 20 21 22 22 23 24 25 27 28 30 32 32 33 34
12 12 12 12 13 14 15 15 16 16 16 16 16 16 16 16 16 16 16 16 17 18 19 19 20 20 20 20 21 22 23 24 26 27 27 27 28 30 33 33 33 35
12 13 12 12 14 15 16 16 16 14 14 14 15 16 17 17 17 17 17 16 16 17 18 19 20 21 21 21 21 21 22 23 25 27 28 28 29 30 32 33 33 34
12 13 12 12 14 15 16 17 16 14 12 13 14 15 17 18 17 16 16 16 17 18 19 20 21 21 21 21 21 21 21 22 23 24 26 27 28 30 31 33 34 34
12 12 11 11 13 14 15 16 15 13 12 13 14 15 16 16 16 15 15 16 18 19 21 21 21 20 20 21 21 22 22 22 22 24 25 25 27 29 30 31 33 34
12 12 10 11 12 13 14 15 15 14 13 14 14 15 15 15 15 15 15 16 18 20 21 21 20 20 20 20 21 22 21 21 22 24 26 27 28 30 30 31 34 35
12 11 10 11 12 12 13 14 15 15 15 15 15 16 16 15 14 15 16 17 18 20 21 20 19 19 19 20 21 22 22 22 23 25 25 26 27 29 31 32 33 35
12 11 10 10 11 12 13 14 15 16 16 16 17 17 16 16 15 15 16 17 18 20 21 19 18 19 19 19 20 21 22 24 27 28 26 26 26 27 30 31 31 34
11 10 10 10 11 12 13 14 15 16 17 18 17 17 16 16 15 15 16 17 18 19 19 17 17 17 18 20 21 21 22 25 28 29 28 27 29 28 29 31 31 33
10 10 10 10 10 12 13 14 16 17 18 19 18 17 16 16 15 15 15 16 17 18 17 16 18 19 19 21 22 22 22 26 29 30 29 30 33 33 31 29 29 31
9 10 11 11 11 12 13 15 16 17 18 19 19 17 16 16 16 16 16 16 17 18 18 18 19 21 21 23 23 22 22 25 29 31 31 32 35 36 33 28 27 28
10 11 12 12 13 14 15 15 16 17 18 19 19 18 17 16 16 17 17 17 18 20 20 20 20 21 23 24 24 23 22 24 28 30 32 35 37 35 31 27 26 26
11 12 12 13 14 15 15 16 16 17 18 19 20 19 18 17 17 17 18 19 19 20 21 22 21 20 23 26 25 23 22 24 28 30 33 36 38 35 30 27 27 27
11 11 12 13 15 16 16 16 17 17 18 19 20 20 19 19 18 18 18 19 20 21 21 21 21 21 23 25 25 22 21 23 27 30 32 36 37 34 31 29 29 28
10 11 12 14 15 16 16 17 17 18 19 19 20 20 21 20 19 18 18 18 19 19 18 19 21 21 23 24 24 22 21 23 26 29 32 35 36 34 32 31 30 28
11 11 13 14 15 16 16 17 19 19 18 18 19 20 21 20 19 18 17 17 17 17 18 18 20 21 22 22 22 21 21 22 25 27 30 34 35 34 32 29 25 21
11 12 13 14 15 16 17 18 20 19 17 17 18 20 21 20 18 17 17 17 17 18 19 19 19 19 19 20 20 20 20 21 24 26 28 32 35 34 33 30 26 21
13 13 14 15 15 16 17 19 20 18 17 18 19 19 19 19 18 17 17 18 18 19 20 21 19 17 16 17 18 19 19 20 22 25 26 30 34 34 34 33 31 28
14 14 14 14 14 15 17 19 18 17 17 18 18 17 17 18 18 17 18 18 19 19 20 21 19 15 14 16 17 18 18 18 20 23 25 28 31 32 33 33 32 29
13 14 14 14 14 15 16 17 17 17 16 16 16 16 16 17 18 18 18 19 19 19 20 22 20 15 14 14 15 17 18 19 20 22 23 25 27 28 30 31 32 32
13 14 14 13 14 14 15 16 17 17 16 16 16 16 17 18 19 19 19 19 20 19 20 22 20 15 14 14 15 17 19 20 21 22 22 22 24 26 28 30 33 33
13 14 13 13 13 13 14 15 16 17 17 16 17 18 19 19 19 19 18 18 19 19 19 21 21 16 14 15 16 18 20 21 22 23 22 22 22 24 26 28 31 32
14 13 13 12 12 13 13 15 16 17 17 17 17 18 18 18 18 18 18 17 18 18 18 20 22 17 13 14 17 18 20 21 21 22 23 23 22 23 24 26 28 30
15 14 13 12 13 13 13 14 14 16 17 16 16 16 17 17 18 19 19 18 17 18 18 19 21 18 13 13 15 18 20 20 20 20 22 22 22 22 22 24 27 28

ECMWFNIL_850_spd_012.txt.gz
Wind_Speed
12 11 10 10 10 11 12 13 14 15 16 16 16 17 16 15 14 13 13 13 14 15 15 15 15 15 16 16 16 16 16 18 18 18 19 21 24 24 24 25 24 25
12 11 10 9 10 10 11 12 13 14 15 15 15 16 15 15 15 14 13 13 14 14 14 15 15 16 16 17 17 18 18 18 17 16 17 20 23 24 25 27 26 26
12 11 10 9 9 9 10 11 12 13 13 13 14 14 15 15 15 15 15 14 13 12 13 14 14 16 17 18 18 18 18 18 17 16 16 19 22 22 23 25 27 27
12 11 10 9 9 9 9 10 10 11 11 11 12 13 14 14 15 15 14 13 13 12 12 14 15 16 18 19 18 17 16 17 18 17 17 19 21 22 22 23 25 26
12 11 10 9 9 9 9 9 9 10 10 10 10 11 13 14 15 15 14 13 12 13 13 14 15 15 15 16 16 15 15 15 17 18 19 20 21 23 25 24 24 26
12 11 9 9 8 8 8 8 9 9 10 10 10 11 12 14 15 15 15 14 13 13 14 15 16 15 14 14 15 15 15 15 17 18 19 20 21 24 26 27 27 28
12 11 9 8 8 8 8 8 9 10 10 10 11 11 12 13 14 15 15 15 15 15 16 17 18 18 16 15 14 15 15 16 18 18 19 20 23 24 25 26 28 29
12 11 9 9 8 8 8 9 10 11 12 11 11 12 13 13 14 14 15 16 16 16 17 18 18 17 16 15 15 15 16 17 17 18 20 22 23 25 25 26 28 29
12 11 10 9 9 9 9 9 10 12 13 14 13 14 14 14 14 14 15 16 16 16 17 18 18 16 15 15 16 17 18 18 18 19 21 23 25 26 27 29 31 32
12 11 10 9 9 9 9 9 10 11 13 15 16 16 15 15 14 14 14 14 15 16 16 17 17 16 16 16 17 18 18 19 20 21 21 22 25 27 29 31 34 35
11 10 10 9 9 9 9 10 11 12 13 15 17 17 16 16 15 15 15 15 15 16 16 17 18 18 19 18 18 18 19 21 22 22 21 21 24 28 30 32 34 35
11 10 10 9 9 10 10 11 12 13 14 14 14 16 16 16 15 16 15 15 16 17 17 19 20 21 20 20 19 20 21 22 23 21 19 21 26 29 30 32 32 33
10 10 10 10 10 11 12 12 13 13 14 14 14 15 15 15 16 16 16 16 16 17 18 19 20 21 21 20 20 21 23 24 22 20 19 21 26 28 29 31 32 32
10 10 10 10 11 12 13 14 14 14 15 15 15 15 16 16 16 16 17 17 16 16 18 19 19 20 20 20 20 21 22 23 22 20 19 21 25 28 27 30 33 33
10 10 10 10 11 12 14 14 14 14 15 15 16 16 16 17 16 16 17 17 16 16 16 18 18 18 18 19 19 21 22 22 21 20 19 21 25 28 27 29 33 36
10 10 10 11 12 13 15 14 14 14 15 16 17 17 16 17 17 17 17 16 15 15 15 17 17 18 19 19 19 20 22 21 21 20 19 21 25 27 26 29 34 37
9 10 10 11 12 14 15 14 13 14 16 17 17 16 16 16 17 17 16 15 14 14 15 16 17 19 20 20 19 20 21 20 20 19 18 20 24 25 25 30 35 37
9 10 11 11 13 15 15 13 13 15 16 16 15 15 15 16 16 16 15 14 14 14 15 15 17 19 20 20 20 20 19 19 19 18 18 20 22 23 25 29 33 36
10 10 11 12 13 15 14 12 13 14 14 14 13 14 14 15 15 14 14 14 15 15 16 16 17 19 20 20 20 19 17 17 17 17 17 19 21 23 25 27 30 34
10 11 12 13 14 15 14 12 12 12 12 12 12 12 13 14 14 14 15 15 15 15 16 17 17 20 22 20 19 18 16 16 17 17 17 19 21 23 24 24 27 31
11 12 13 14 14 15 14 12 11 11 12 12 11 12 12 13 14 14 15 16 15 15 16 16 17 20 22 21 19 17 16 17 18 18 18 20 21 23 23 23 24 27
11 12 13 14 13 13 12 11 11 11 12 13 13 13 13 13 14 13 14 15 15 15 16 16 16 19 22 22 19 17 17 18 19 19 20 20 21 23 23 22 22 23
12 13 14 14 13 13 12 11 11 12 12 13 14 13 12 13 13 13 13 14 14 15 15 15 16 19 21 21 19 18 18 19 20 20 20 21 21 22 23 22 21 21
14 15 16 15 13 13 12 11 11 12 12 13 14 13 13 12 12 13 13 14 15 14 15 16 16 17 19 20 18 17 18 19 20 20 20 21 21 21 22 22 21 20
15 15 16 15 14 13 12 11 12 12 12 12 13 12 12 12 12 13 14 15 15 14 15 16 16 15 18 19 17 16 17 18 20 21 21 21 21 22 22 22 21 21
14 15 15 15 15 14 13 12 12 12 11 12 12 11 11 11 12 14 15 15 15 14 14 14 14 14 17 18 16 16 16 18 20 22 22 22 21 22 23 22 22 22